sat.trackr.live / text

‹ back to catalog

STARLINK-37507

NORAD 68916 · 2026-097X

PAYLOAD ACTIVE UNKNOWN

§ Identity

Operator
Country
US
Launch date
2026-04-30
Launch site
AFWTR
Launch vehicle
Mass (kg)
RCS (m²)

Purposes: comms

External: N2YO · Heavens-Above · Gunter

§ Orbital elements

Epoch: 2026-09-19T07:35:45.828096Z

Period
93.91 min
Inclination
97.2848°
Eccentricity
0.0001689
Mean motion
15.33456038 rev/d
Perigee alt
464.4 km
Apogee alt
466.7 km
Semi-major
6,843.6 km
B*
4.7713e-4
RAAN
96.5274°
Arg perigee
84.1982°
Mean anomaly
275.9453°
Rev number
2,191

§ Raw data

STARLINK-375071 68916U 26097X   26262.31650264  .00015365  00000+0  47713-3 0  99932 68916  97.2848  96.5274 0001689  84.1982 275.9453 15.33456038 21915

JSON: /api/v1/satellites/68916 · /tle

For live sub-satellite position, see the globe view (requires WebGL).

§ Visibility from observer

Set your observer location to see the next 7 days of passes ≥ 10°. The values pass through the URL so the page stays shareable.

No JS? Fill the form by hand. The geolocation button needs JavaScript.